Location: Brookview Estates
(36.0476°N, 86.6931°W)
Time: 05:19:55
(UTC+00:00)

Cosmos 1953 - Pass Details

Date: 30 March 2020
Orbit: 539 x 557 km, 82.5° (Epoch: 01 June)

Event Time Altitude Azimuth Distance (km) Brightness Sun altitude
Exits shadow 01:13:54 17° 65° (ENE) 1,425 4.0 -14.2°
Drops below altitude 10° 01:15:31 10° 43° (NE) 1,805 4.7 -14.5°
Sets 01:18:09 0° 25° (NNE) 2,704 5.8 -15.0°
